Weather History for KHTL - May, 2013

Change the Weather History Date:

Sunday, May 26, 2013

  Actual Average Record
Temperature  
Mean Temperature 52 °F 57 °F  
Max Temperature 69 °F 69 °F 90 °F (1944)
Min Temperature 34 °F 45 °F 26 °F (1930)
Degree Days  
Heating Degree Days 13 9  
Month to date heating degree days 245 318  
Since 1 July heating degree days 7544 7979  
Cooling Degree Days 0 1  
Month to date cooling degree days 20 7  
Year to date cooling degree days 20 9  
Growing Degree Days 2 (Base 50)    
Moisture  
Dew Point 37 °F    
Average Humidity 62    
Maximum Humidity 100    
Minimum Humidity 23    
Precipitation  
Precipitation 0.00 in 0.10 in 1.25 in (1991)
Month to date precipitation 2.75 2.33  
Year to date precipitation 15.05 9.37  
Sea Level Pressure  
Sea Level Pressure 30.33 in    
Wind  
Wind Speed 4 mph (SW)    
Max Wind Speed 14 mph    
Max Gust Speed 18 mph    
Visibility 5 miles    
Events Fog    
T = Trace of Precipitation, MM = Missing Value Source: NWS Daily Summary

Daily Weather History Graph

Daily Weather History Graph

Search for Another Location

Airport or City:

Trip Planner

Search our weather history database for the weather conditions in past years. The results will help you decide how hot, cold, wet, or windy it might be!

Date:

Astronomy

May. 26, 2013 Rise Set
Actual Time 6:01 AM EDT 9:10 PM EDT
Civil Twilight 5:26 AM EDT 9:46 PM EDT
Nautical Twilight 4:40 AM EDT 10:31 PM EDT
Astronomical Twilight 3:46 AM EDT 11:26 PM EDT
Moon 10:56 PM EDT (5/26) 7:30 AM EDT (5/26)
Length of Visible Light 16h 19m
Length of Day
15h 09m
Waning Gibbous, 97% of the Moon is Illuminated
May 26
Waning Gibbous
May 31
Last Quarter
Jun 8
New
Jun 16
First Quarter
Jun 23
Full

Hourly Weather History & Observations

Time (EDT) Temp. Dew Point Humidity Pressure Visibility Wind Dir Wind Speed Gust Speed Precip Events Conditions
12:53 AM 41.0 °F 39.0 °F 93% 30.35 in 10.0 mi Calm Calm - N/A   Clear
1:05 AM 41.0 °F 39.2 °F 93% 30.33 in 1.5 mi Calm Calm - N/A   Clear
1:10 AM 41.0 °F 39.2 °F 93% 30.33 in 1.0 mi Calm Calm - N/A   Mist
1:17 AM 41.0 °F 39.2 °F 93% 30.33 in 0.8 mi Calm Calm - N/A   Mist
1:22 AM 41.0 °F 39.2 °F 93% 30.33 in 1.8 mi Calm Calm - N/A   Partly Cloudy
1:29 AM 39.2 °F 39.2 °F 100% 30.33 in 6.0 mi Calm Calm - N/A   Partly Cloudy
1:53 AM 39.9 °F 39.9 °F 100% 30.35 in 8.0 mi Calm Calm - N/A   Clear
1:57 AM 39.2 °F 39.2 °F 100% 30.33 in 1.5 mi Calm Calm - N/A   Clear
2:00 AM 39.2 °F 39.2 °F 100% 30.33 in 0.8 mi Calm Calm - N/A   Clear
2:07 AM 39.2 °F 39.2 °F 100% 30.33 in 1.5 mi Calm Calm - N/A   Clear
2:09 AM 39.2 °F 37.4 °F 93% 30.33 in 3.0 mi Calm Calm - N/A   Clear
2:17 AM 39.2 °F 37.4 °F 93% 30.32 in 1.0 mi Calm Calm - N/A   Mist
2:24 AM 37.4 °F 37.4 °F 100% 30.32 in 0.2 mi Calm Calm - N/A Fog Fog
2:32 AM 39.2 °F 39.2 °F 100% 30.32 in 1.8 mi Calm Calm - N/A   Partly Cloudy
2:39 AM 39.2 °F 37.4 °F 93% 30.32 in 2.0 mi Calm Calm - N/A   Partly Cloudy
2:50 AM 37.4 °F 37.4 °F 100% 30.33 in 0.8 mi Calm Calm - N/A   Mist
2:53 AM 37.9 °F 37.9 °F 100% 30.35 in 0.5 mi Calm Calm - N/A Fog Fog
3:34 AM 37.4 °F 37.4 °F 100% 30.32 in 1.2 mi Calm Calm - N/A   Partly Cloudy
3:37 AM 37.4 °F 37.4 °F 100% 30.32 in 2.0 mi Calm Calm - N/A   Partly Cloudy
3:44 AM 37.4 °F 37.4 °F 100% 30.32 in 1.5 mi Calm Calm - N/A   Partly Cloudy
3:53 AM 37.0 °F 37.0 °F 100% 30.35 in 1.0 mi Calm Calm - N/A   Clear
3:57 AM 37.4 °F 37.4 °F 100% 30.33 in 1.8 mi Calm Calm - N/A   Clear
4:03 AM 37.4 °F 37.4 °F 100% 30.33 in 0.8 mi Calm Calm - N/A   Mist
4:23 AM 37.4 °F 35.6 °F 93% 30.33 in 1.2 mi Calm Calm - N/A   Scattered Clouds
4:25 AM 37.4 °F 35.6 °F 93% 30.33 in 3.0 mi Calm Calm - N/A   Scattered Clouds
4:35 AM 35.6 °F 35.6 °F 100% 30.33 in 1.2 mi Calm Calm - N/A   Partly Cloudy
4:42 AM 35.6 °F 35.6 °F 100% 30.32 in 0.2 mi Calm Calm - N/A Fog Fog
4:53 AM 36.0 °F 35.1 °F 97% 30.34 in 0.5 mi Calm Calm - N/A Fog Fog
5:53 AM 35.1 °F 35.1 °F 100% 30.35 in 0.2 mi Calm Calm - N/A Fog Fog
6:53 AM 36.0 °F 36.0 °F 100% 30.37 in 0.2 mi Calm Calm - N/A Fog Fog
7:22 AM 39.2 °F 39.2 °F 100% 30.35 in 2.0 mi Calm Calm - N/A   Mostly Cloudy
7:25 AM 39.2 °F 39.2 °F 100% 30.35 in 6.0 mi Calm Calm - N/A   Scattered Clouds
7:53 AM 43.0 °F 43.0 °F 100% 30.37 in 10.0 mi Calm Calm - N/A   Clear
8:53 AM 51.1 °F 37.0 °F 59% 30.39 in 10.0 mi Calm Calm - N/A   Clear
9:53 AM 55.0 °F 34.0 °F 45% 30.38 in 10.0 mi Variable 3.5 mph - N/A   Clear
10:53 AM 59.0 °F 32.0 °F 36% 30.37 in 10.0 mi Calm Calm - N/A   Clear
11:53 AM 61.0 °F 37.0 °F 41% 30.35 in 10.0 mi West 6.9 mph - N/A   Clear
12:53 PM 62.1 °F 35.1 °F 37% 30.35 in 10.0 mi WSW 8.1 mph - N/A   Clear
1:53 PM 64.9 °F 32.0 °F 29% 30.33 in 10.0 mi WSW 8.1 mph - N/A   Clear
2:53 PM 64.9 °F 32.0 °F 29% 30.32 in 10.0 mi WSW 8.1 mph - N/A   Clear
3:53 PM 66.9 °F 28.9 °F 24% 30.30 in 10.0 mi West 5.8 mph - N/A   Clear
4:53 PM 66.9 °F 30.0 °F 25% 30.28 in 10.0 mi West 8.1 mph - N/A   Clear
5:53 PM 69.1 °F 30.9 °F 24% 30.26 in 10.0 mi West 5.8 mph - N/A   Clear
6:53 PM 64.0 °F 39.9 °F 41% 30.26 in 10.0 mi SSE 8.1 mph - N/A   Clear
7:53 PM 59.0 °F 37.9 °F 46% 30.26 in 10.0 mi SE 8.1 mph 18.4 mph N/A   Clear
8:53 PM 55.0 °F 37.0 °F 51% 30.26 in 10.0 mi SE 6.9 mph - N/A   Clear
9:53 PM 51.1 °F 37.0 °F 59% 30.27 in 10.0 mi SE 3.5 mph - N/A   Clear
10:53 PM 46.9 °F 39.0 °F 74% 30.28 in 10.0 mi ESE 4.6 mph - N/A   Clear
11:53 PM 46.0 °F 39.9 °F 79% 30.28 in 10.0 mi Calm Calm - N/A   Clear